Regional Weather Roundup
Issued by NWS

Home | Current Version | Previous Version | Graphics & Text | Print | Product List | Glossary On
Versions: 1 2 3 4 5 6 7 8 9 10 11 12 13 14 15 16 17 18 19 20 21 22 23 24 25 26 27 28 29 30 31 32 33 34 35 36 37 38 39 40 41 42 43 44 45 46 47 48 49 50
000
ASUS43 KMPX 031701
RWRMN
WEATHER ROUNDUP FOR MINNESOTA
NATIONAL WEATHER SERVICE TWIN CITIES/CHANHASSEN MN
1200 PM CDT WED JUN 03 2015


NOTE: "FAIR" INDICATES FEW OR NO CLOUDS BELOW 12,000 FEET WITH NO
SIGNIFICANT WEATHER AND/OR OBSTRUCTIONS TO VISIBILITY. N/A MEANS
CURRENT SKY AND/OR WEATHER CONDITIONS ARE NOT AVAILABLE.

MNZ060>063-068>070-031800-
   Twin Cities Metro

CITY           SKY/WX    TMP DP  RH WIND       PRES   REMARKS
TWIN CITIES    CLOUDY    67  58  72 S8        29.86R
ST PAUL        CLOUDY    67  59  75 S8        29.87R
CRYSTAL        CLOUDY    67  59  75 S9        29.85R
BLAINE         CLOUDY    70  61  73 S12       29.85R
LAKEVILLE      TSTM      63  59  88 SW5G22    29.86R
EDEN PRAIRIE   TSTM      65  60  84 S7        29.86R
SOUTH ST PAUL  CLOUDY    66  58  76 S7        29.87R
LAKE ELMO      CLOUDY    66  59  77 S9        29.88R
$$
MNZ001>005-007-008-013>017-022>024-027-028-031800-
   Northwest Minnesota

CITY           SKY/WX    TMP DP  RH WIND       PRES   REMARKS
BEMIDJI        CLOUDY    62  61  97 SE5       29.82R FOG
HALLOCK        CLOUDY    61  55  82 N10       29.87R
ROSEAU         CLOUDY    61  55  82 NE15      29.86R
WARROAD        CLOUDY    59  55  88 NE12G20   29.87R
THIEF RVR FALL CLOUDY    64  59  82 NE7       29.84R
CROOKSTON      CLOUDY    59  57  94 N13       29.84R
FOSSTON        CLOUDY    66  64  94 CALM      29.82R
DETROIT LAKES  CLOUDY    63  61  94 SW5       29.83R FOG
MOORHEAD       CLOUDY    57  54  88 NW16      29.84R
PARK RAPIDS    CLOUDY    67  60  78 S9        29.80F
MAHNOMEN       CLOUDY    64  61  90 CALM      29.82R FOG
$$
MNZ006-009>011-018-025>026-031800-
   North Central Minnesota

CITY           SKY/WX    TMP DP  RH WIND       PRES   REMARKS
BAUDETTE       CLOUDY    65  59  81 NE10      29.84R
FLAG ISLAND    CLOUDY    61  55  82 NE12      29.88R
INTL FALLS     CLOUDY    64  59  83 NE7       29.86R
WASKISH        CLOUDY    68  63  83 E3        29.83R
BIG FORK       LGT RAIN  63  57  82 SE5       29.86R
LONGVILLE      CLOUDY    63  61  94 SE5       29.82F FOG
GRAND RAPIDS   CLOUDY    63  55  77 SE6       29.85S
CRANE LAKE     CLOUDY    64  61  88 CALM      29.88R
ORR            CLOUDY    66  57  72 S5        29.85R
COOK           CLOUDY    63  57  82 SE6       29.88R
WALKER         CLOUDY    63  59  86 S6        29.82R
$$
MNZ012-019>021-037-031800-
   Northeast Minnesota

CITY           SKY/WX    TMP DP  RH WIND       PRES   REMARKS
DULUTH         CLOUDY    61  53  75 E8        29.88R
ELY            CLOUDY    64  55  72 S5        29.89R
HIBBING        CLOUDY    62  57  83 SE8       29.87R
EVELETH        PTSUNNY   61  55  82 SE5       29.89R
DULUTH HARBOR  CLOUDY    50  46  87 CALM      29.89S
TWO HARBORS    CLOUDY    64  57  77 CALM      29.88R
SILVER BAY     CLOUDY    66  55  68 S6        29.87S
GRAND MARAIS     N/A     48  41  76 NE7       29.91R
G MARAIS ARPRT MOSUNNY   64  54  68 S3        29.92R
$$
MNZ029>031-032-039>041-046>048-054>057-064-031800-
   West Central Minnesota

CITY           SKY/WX    TMP DP  RH WIND       PRES   REMARKS
FERGUS FALLS   FOG       61  61 100 NW14      29.83S VSB 3/4
WHEATON        CLOUDY    61  59  94 W10       29.85F FOG
MORRIS         DRIZZLE   63  63 100 NW7       29.83R
ALEXANDRIA     CLOUDY    64  60  87 SW10      29.83F
ELBOW LAKE     CLOUDY    61  61  98 W6        29.83S FOG
WADENA         CLOUDY    64  61  88 SW7       29.80F
GLENWOOD       LGT RAIN  63  63 100 S8        29.87R
APPLETON       RAIN      64  63  94 NW3       29.83F
BENSON         RAIN      64  63  94 NW3       29.84R
ORTONVILLE     CLOUDY    64  61  88 NE6       29.83S FOG
MADISON        CLOUDY    66  64  94 N9        29.81F
WILLMAR        TSTM      63  63 100 SW3       29.88R
$$
MNZ033>034-036-042>043-049>051-058-059-031800-
   Central Minnesota

CITY           SKY/WX    TMP DP  RH WIND       PRES   REMARKS
ST CLOUD       TSTM      64  59  83 W14       29.89R
SAUK CENTRE    LGT RAIN  61  60  97 SE13      29.88R
PAYNESVILLE    RAIN      59  58  99 SE5       29.89R
AITKIN         CLOUDY    66  57  72 SE5       29.81F
PINE RIVER     CLOUDY    64  61  88 S3        29.84F
BRAINERD       CLOUDY    66  59  78 S6        29.80F
STAPLES        CLOUDY    64  59  82 SW6       29.80F
LONG PRAIRIE   RAIN      61  59  94 SE12      29.84R
LITTLE FALLS   LGT RAIN  61  59  94 SE8       29.84R
LITCHFIELD     HVY RAIN  63  63 100 W3        29.88R
BUFFALO        CLOUDY    64  58  78 S5        29.87S
MAPLE LAKE     CLOUDY    65  61  85 S6        29.87R HAZE
$$
MNZ037-044-045-052-053-031800-
   East Central Minnesota

CITY           SKY/WX    TMP DP  RH WIND       PRES   REMARKS
PRINCETON      CLOUDY    66  59  77 S9        29.85R
MORA           CLOUDY    64  57  77 S7        29.86F
CAMBRIDGE      CLOUDY    70  57  64 S8        29.83R
RUSH CITY      CLOUDY    67  58  72 S6        29.85F
MOOSE LAKE     CLOUDY    63  55  77 S7        29.84F
HINCKLEY       CLOUDY    64  59  82 SE9       29.85F
CLOQUET        CLOUDY    59  54  82 E3        29.87S
MCGREGOR       CLOUDY    64  59  82 SE5       29.84F
$$
MNZ071>073-080-081-089-090-097-098-031800-
   Southwest Minnesota

CITY           SKY/WX    TMP DP  RH WIND       PRES   REMARKS
MONTEVIDEO     RAIN      64  64 100 NE7       29.85R
GRANITE FALLS  HVY RAIN  64  63  97 N9        29.83F
CANBY          CLOUDY    67  65  93 N5        29.84R
MARSHALL       CLOUDY    66  61  82 NW9       29.83R
REDWOOD FALLS  LGT RAIN  64  62  93 NE7       29.82R FOG
OLIVIA         RAIN      59  57  94 NW14G20   29.81F
PIPESTONE      LGT RAIN  70  63  78 W5        29.87R
WINDOM         RAIN      63  61  94 W6        29.85S
WORTHINGTON    PTSUNNY   64  59  82 N17       29.86R
JACKSON        CLOUDY    70  63  78 W12       29.85S
TRACY          CLOUDY    68  65  90 NW8       29.85R
SLAYTON        LGT RAIN  64  62  92 CALM      29.87R
$$
MNZ065>067-074>077-082>085-091>093-031800-
   South Central Minnesota

CITY           SKY/WX    TMP DP  RH WIND       PRES   REMARKS
MANKATO        CLOUDY    64  59  82 S13G20    29.85S
NEW ULM        CLOUDY    64  63  94 S7        29.84R
ST JAMES       CLOUDY    66  63  88 S10       29.84S
FAIRMONT       CLOUDY    68  57  68 SW14      29.85R
GLENCOE          N/A     63  62  97 E3        29.86R
FARIBAULT      CLOUDY    63  61  94 S5        29.87F
OWATONNA       CLOUDY    66  57  72 S12       29.88S
WASECA         CLOUDY    63  57  82 S17       29.87F
ALBERT LEA     CLOUDY    66  59  77 S9G21     29.87S
$$
MNZ078>079-086>088-094>096-031800-
   Southeast Minnesota

CITY           SKY/WX    TMP DP  RH WIND       PRES   REMARKS
ROCHESTER      CLOUDY    69  57  65 S18G25    29.90R
RED WING       CLOUDY    72  57  60 S9        29.84R
STANTON        TSTM      65  60  84 S5        29.86R
DODGE CENTER   RAIN      66  59  77 SW14      29.89R
WINONA         CLOUDY    73  59  60 S3G18     29.89F
AUSTIN         CLOUDY    66  57  72 S15       29.89R
PRESTON        CLOUDY    68  56  64 SE14G21   29.89S
$$
ABBREVIATIONS USED IN REMARKS
   TC - TEMPERATURES IN CELSIUS
  WCI - WIND CHILL INDEX
   HX - HEAT INDEX
  VSB - VISIBILITY
$$


USA.gov is the U.S. government's official web portal to all federal, state and local government web resources and services.